Home   Weather   Mörfelden-Walldorf   Past weeks

Flag for Germany Past Weather in Mörfelden-Walldorf, Hesse, Germany — Yesterday and Last 2 Weeks

Now
37 °F

Clear.


Feels Like: 35 °F
Forecast: 38 / 53 °F
Wind: 3 mph from South

Location: Frankfurt-M-Flughafen Airport

Current Time: Apr 25, 2017 at 5:01:31 am

Latest Report: Apr 25, 2017 at 4:20 am


Visibility: 10 mi

Pressure: 29.68 "Hg

Humidity: 87%

Dew Point: 34 °F

Location of Mörfelden-WalldorfLocation

Past Weather in Mörfelden-Walldorf — Graph

°F

Mörfelden-Walldorf Temperature Yesterday

Maximum temperature yesterday: 63 °F (at 5:20 pm)
Minimum temperature yesterday: 28 °F (at 5:50 am)
Average temperature yesterday: 48 °F

High & Low Weather Summary for the Past Weeks

 TemperatureHumidityPressure
High70 °F (Apr 10, 12:20 pm)100% (Apr 17, 10:20 am)30.60 "Hg (Apr 17, 10:20 am)
Low27 °F (Apr 20, 4:20 am)30% (Apr 20, 6:20 pm)29.68 "Hg (Apr 25, 3:50 am)
Average48 °F62%30.16 "Hg
* Reported Apr 10 3:20 am — Apr 25 3:50 am, Mörfelden-Walldorf, Weather by CustomWeather, © 2017

Note: Actual official high and low records may vary slightly from our data, if they occured in-between our weather recording intervals... More about our weather records

Advertising

Mörfelden-Walldorf Weather History for the Previous 24 Hours

Scroll right to see more
 ConditionsComfort  
Time TempWeatherWind HumidityBarometerVisibility
3:50 am
Tue, Apr 25
37 °FClear.5 mph87%29.68 "Hg10 mi
3:20 am39 °FClear.2 mph81%29.71 "Hg10 mi
2:50 am41 °FClear.2 mph76%29.71 "Hg10 mi
2:20 am41 °FClear.3 mph81%29.71 "Hg10 mi
1:50 am43 °FClear.2 mph76%29.74 "Hg10 mi
12:50 am43 °FClear.3 mph76%29.74 "Hg10 mi
12:20 am45 °FClear.3 mph71%29.74 "Hg10 mi
11:50 pm
Mon, Apr 24
45 °FClear.2 mph71%29.74 "Hg10 mi
11:20 pm45 °FPassing clouds.3 mph66%29.77 "HgN/A
10:50 pm46 °FClear.3 mph62%29.77 "Hg10 mi
10:20 pm48 °FClear.3 mph58%29.77 "Hg10 mi
9:50 pm48 °FCool.5 mph58%29.77 "HgN/A
9:20 pm52 °FClear.2 mph50%29.80 "Hg10 mi
8:50 pm54 °FClear.3 mph47%29.80 "Hg10 mi
8:20 pm57 °FSunny.3 mph41%29.80 "Hg10 mi
7:50 pm59 °FPassing clouds.6 mph39%29.80 "HgN/A
7:20 pm59 °FSunny.8 mph39%29.83 "Hg10 mi
6:50 pm61 °FPassing clouds.7 mph36%29.83 "HgN/A
6:20 pm61 °FSunny.8 mph36%29.83 "Hg10 mi
5:50 pm63 °FPassing clouds.6 mph34%29.86 "HgN/A
5:20 pm63 °FPassing clouds.8 mph32%29.86 "HgN/A
4:50 pm61 °FPassing clouds.7 mph34%29.89 "HgN/A
4:20 pm61 °FPassing clouds.12 mph31%29.89 "HgN/A
3:50 pm59 °FPassing clouds.9 mph34%29.92 "HgN/A
3:20 pm61 °FSunny.8 mph34%29.95 "Hg10 mi
2:50 pm59 °FSunny.7 mph34%29.95 "Hg10 mi
2:20 pm57 °FSunny.5 mph36%29.98 "Hg10 mi
1:50 pm57 °FSunny.5 mph39%29.98 "Hg10 mi
1:20 pm55 °FPassing clouds.8 mph41%30.01 "HgN/A
12:50 pm55 °FSunny.7 mph38%30.04 "Hg10 mi
12:20 pm54 °FPassing clouds.8 mph41%30.04 "HgN/A
11:50 am54 °FPartly sunny.9 mph44%30.07 "HgN/A
11:20 am54 °FPartly sunny.9 mph41%30.07 "HgN/A
10:50 am52 °FPartly sunny.7 mph47%30.07 "HgN/A
10:20 am52 °FPassing clouds.2 mph50%30.07 "HgN/A
9:50 am48 °FSunny.2 mph58%30.09 "Hg10 mi
9:20 am46 °FSunny.2 mph62%30.09 "Hg10 mi
8:50 am43 °FSunny.2 mph71%30.09 "Hg10 mi
8:20 am41 °FSunny.2 mph76%30.12 "Hg10 mi
7:50 am36 °FSunny.2 mph87%30.12 "Hg10 mi
7:20 am32 °FSunny.3 mph87%30.12 "Hg10 mi
6:50 am30 °FSunny.2 mph93%30.12 "Hg10 mi
5:50 am28 °FClear.2 mph93%30.12 "Hg10 mi
Weather by CustomWeather, © 2017

See weather overviewHow to use our weather pages